Powrót do katalogu

STARLINK-2588

AktywnyŁącznośćVLEO
NORAD 48398·PAYLOAD·🇺🇸 United States

Wystrzelony May 4, 2021 z Cape Canaveral Space Force Station

Loading…

Następne Przeloty (najbliższe 24 godziny)

TLE

ŚwieżeSource: CelesTrak SupGP

Epoka: Sep 14, 2026, 21:25 UTC

1 48398C 21038AX  26257.89284722  .00002801  00000+0  10932-3 0  2575
2 48398  53.0493 191.3636 0005191  22.8373  52.8264 15.25361652    12

Śledź STARLINK-2588 w czasie rzeczywistym z AllMySat

Download on the App Store